Weather History for Malmstrom AFB, MT

Change the Weather History Date:

Saturday, January 18, 2014

  Actual Average (KGTF) Record (KGTF)
Temperature  
Mean Temperature 39 °F 25 °F  
Max Temperature 54 °F 36 °F 60 °F (1900)
Min Temperature 24 °F 15 °F -28 °F (1935)
Degree Days  
Heating Degree Days 26 40  
Month to date heating degree days 725  
Since 1 July heating degree days 3942  
Cooling Degree Days 0 0  
Month to date cooling degree days 0  
Year to date cooling degree days 0  
Moisture  
Dew Point 20 °F    
Average Humidity 48    
Maximum Humidity 78    
Minimum Humidity 23    
Precipitation  
Precipitation 0.00 in 0.02 in 0.25 in (1975)
Month to date precipitation 0.31  
Year to date precipitation 0.31  
Snow  
Snow 0.00 in 0.30 in 4.00 in (1954)
Month to date snowfall 5.2  
Since 1 July snowfall 28.4  
Snow Depth -    
Sea Level Pressure  
Sea Level Pressure 30.19 in    
Wind  
Wind Speed 12 mph (SSW)    
Max Wind Speed 29 mph    
Max Gust Speed 36 mph    
Visibility 10 miles    
Events      
T = Trace of Precipitation, MM = Missing Value Source: NWS Daily Summary

Daily Weather History Graph

Daily Weather History Graph

Search for Another Location

Airport:

Trip Planner

Search our weather history database for the weather conditions in past years. The results will help you decide how hot, cold, wet, or windy it might be!

Date:

Astronomy

Jan. 18, 2014 Rise Set
Actual Time 8:05 AM MST 5:05 PM MST
Civil Twilight 7:31 AM MST 5:39 PM MST
Nautical Twilight 6:53 AM MST 6:17 PM MST
Astronomical Twilight 6:16 AM MST 6:54 PM MST
Moon 8:05 PM MST (1/18) 8:54 AM MST (1/18)
Length of Visible Light 10h 08m
Length of Day
8h 59m
Waning Gibbous, 94% of the Moon is Illuminated
Jan 18
Waning Gibbous
Jan 23
Last Quarter
Jan 30
New
Feb 6
First Quarter
Feb 14
Full

Hourly Weather History & Observations

Time (MST) Temp. Windchill Dew Point Humidity Pressure Visibility Wind Dir Wind Speed Gust Speed Precip Events Conditions
12:56 AM 28.9 °F 19.8 °F 21.9 °F 75% 30.34 in 10.0 mi SSW 10.4 mph - N/A   Clear
1:56 AM 26.1 °F - 19.9 °F 78% 30.36 in 10.0 mi Calm Calm - N/A   Clear
2:56 AM 26.1 °F 21.9 °F 19.9 °F 78% 30.36 in 10.0 mi South 3.5 mph - N/A   Clear
3:56 AM 30.0 °F 24.1 °F 21.0 °F 69% 30.35 in 10.0 mi WSW 5.8 mph - N/A   Clear
4:56 AM 26.1 °F - 19.0 °F 75% 30.33 in 10.0 mi Calm Calm - N/A   Clear
5:56 AM 26.1 °F 21.9 °F 19.0 °F 75% 30.33 in 10.0 mi SW 3.5 mph - N/A   Clear
6:56 AM 24.1 °F 14.4 °F 18.0 °F 77% 30.35 in 10.0 mi South 9.2 mph - N/A   Clear
7:56 AM 28.9 °F 19.2 °F 21.0 °F 72% 30.29 in 10.0 mi SSW 11.5 mph - N/A   Clear
8:56 AM 30.9 °F 22.8 °F 23.0 °F 72% 30.29 in 10.0 mi South 9.2 mph - N/A   Clear
9:56 AM 41.0 °F 34.3 °F 24.1 °F 51% 30.26 in 10.0 mi SSW 11.5 mph - N/A   Clear
10:56 AM 46.0 °F 39.3 °F 21.9 °F 39% 30.23 in 10.0 mi SSW 16.1 mph - N/A   Clear
11:56 AM 50.0 °F - 18.0 °F 28% 30.19 in 10.0 mi SSW 19.6 mph 25.3 mph N/A   Clear
12:56 PM 53.1 °F - 16.0 °F 23% 30.16 in 10.0 mi SSW 20.7 mph 28.8 mph N/A   Clear
1:56 PM 54.0 °F - 17.1 °F 23% 30.14 in 10.0 mi SSW 24.2 mph 32.2 mph N/A   Clear
2:56 PM 54.0 °F - 19.0 °F 25% 30.12 in 10.0 mi SSW 24.2 mph 31.1 mph N/A   Clear
3:56 PM 52.0 °F - 19.9 °F 28% 30.11 in 10.0 mi SSW 20.7 mph - N/A   Clear
4:56 PM 48.9 °F - 21.0 °F 33% 30.12 in 10.0 mi SSW 19.6 mph - N/A   Clear
5:56 PM 48.0 °F - 21.0 °F 34% 30.10 in 10.0 mi SSW 21.9 mph - N/A   Clear
6:56 PM 48.0 °F - 21.0 °F 34% 30.09 in 10.0 mi SSW 24.2 mph - N/A   Clear
7:56 PM 48.0 °F - 21.9 °F 36% 30.05 in 10.0 mi SSW 23.0 mph - N/A   Clear
8:56 PM 48.0 °F - 21.0 °F 34% 30.03 in 10.0 mi SSW 23.0 mph 29.9 mph N/A   Clear
9:56 PM 50.0 °F - 19.9 °F 31% 29.99 in 10.0 mi SSW 26.5 mph 32.2 mph N/A   Clear
10:56 PM 50.0 °F - 17.1 °F 27% 29.96 in 10.0 mi SSW 28.8 mph 35.7 mph N/A   Clear
11:56 PM 50.0 °F - 17.1 °F 27% 29.93 in 10.0 mi SSW 27.6 mph 35.7 mph N/A   Clear